FW7645 Weather Reports


time (UTC)temp
C
wind
direction
speed
KPH
gust
KPH
rain 1hr
cm
rain 24hr
cm
rain mn
cm
humidity
%
barometer
mb
20260505153046 23 271 4.8 14.5 0.00 0.20 0.20 45 1009.6
20260505151544 23 318 3.2 12.9 0.00 0.20 0.20 45 1009.6
20260505124533 18 97 1.6 8.0 0.00 0.20 0.20 65 1009.5
20260505123042 17 115 0.0 1.6 0.00 0.20 0.20 70 1009.7
20260505121542 16 253 0.0 6.4 0.00 0.20 0.20 71 1009.8
20260505120047 15 322 0.0 8.0 0.03 0.20 0.20 78 1010.0
20260505114535 15 143 0.0 4.8 0.20 0.20 0.20 78 1009.9
20260505113039 13 0 0.0 1.6 0.20 0.20 0.20 85 1009.8
20260505111539 14 0 0.0 3.2 0.20 0.20 0.20 84 1009.7
20260505101543 17 0 0.0 6.4 0.00 0.00 0.00 59 1009.4
20260505100041 16 0 0.0 3.2 0.00 0.00 0.00 59 1009.1
20260505094537 16 96 0.0 3.2 0.00 0.00 0.00 60 1009.1
20260505093037 16 0 0.0 3.2 0.00 0.00 0.00 60 1009.1
20260505091539 16 0 0.0 3.2 0.00 0.00 0.00 59 1009.0
20260505090040 16 252 0.0 4.8 0.00 0.00 0.00 60 1008.9
20260505084546 16 0 0.0 1.6 0.00 0.00 0.00 60 1008.5
20260505083038 16 0 0.0 4.8 0.00 0.00 0.00 60 1008.4
20260505081544 16 0 0.0 4.8 0.00 0.00 0.00 60 1008.6
20260505080041 16 118 0.0 1.6 0.00 0.00 0.00 61 1008.8
20260505074540 17 0 0.0 1.6 0.00 0.00 0.00 59 1008.9
20260505073044 17 0 1.6 4.8 0.00 0.00 0.00 59 1008.3
20260505071537 17 0 0.0 6.4 0.00 0.00 0.00 58 1008.2
20260505070048 17 0 0.0 3.2 0.00 0.00 0.00 58 1008.1
20260505064541 17 124 0.0 8.0 0.00 0.00 0.00 58 1008.1
20260505063035 17 0 0.0 4.8 0.00 0.00 0.00 58 1008.3
20260505061540 17 52 0.0 4.8 0.00 0.00 0.00 58 1008.2
20260505060039 17 0 0.0 3.2 0.00 0.00 0.00 58 1008.3
20260505054540 17 0 0.0 1.6 0.00 0.00 0.00 59 1008.6
20260505053049 17 0 0.0 1.6 0.00 0.00 0.00 58 1008.7
20260505051539 17 130 0.0 3.2 0.00 0.00 0.00 57 1008.8
20260505041550 17 0 0.0 3.2 0.00 0.00 0.00 58 1008.9
20260505040050 17 94 0.0 3.2 0.00 0.00 0.00 59 1008.8
20260505034535 17 131 0.0 1.6 0.00 0.00 0.00 59 1008.8
20260505033035 17 0 0.0 1.6 0.00 0.00 0.00 61 1008.6
20260505031541 16 0 0.0 1.6 0.00 0.00 0.00 64 1008.5
20260505030037 15 0 0.0 0.0 0.00 0.00 0.00 75 1008.5
20260505024554 15 0 0.0 0.0 0.00 0.00 0.00 76 1008.7
20260505023041 15 0 0.0 0.0 0.00 0.00 0.00 73 1008.7
20260505021539 15 0 0.0 0.0 0.00 0.00 0.00 71 1008.6
20260505020035 16 0 0.0 0.0 0.00 0.00 0.00 69 1008.7
20260505014558 17 0 0.0 1.6 0.00 0.00 0.00 63 1008.6
20260505013037 18 101 1.6 20.9 0.00 0.00 0.00 58 1008.6
20260505011548 19 74 0.0 4.8 0.00 0.00 0.00 48 1008.5
20260505010040 19 0 0.0 1.6 0.00 0.00 0.00 49 1008.0
20260505004539 20 108 0.0 4.8 0.00 0.00 0.00 46 1008.0
20260505003037 20 0 0.0 4.8 0.00 0.00 0.00 46 1007.9
20260505001538 20 124 0.0 3.2 0.00 0.00 0.00 44 1007.9
20260505000048 21 216 0.0 3.2 0.00 0.00 0.00 44 1007.8
20260504234547 21 330 0.0 6.4 0.00 0.00 0.00 43 1007.6
20260504233056 21 101 0.0 4.8 0.00 0.00 0.00 42 1007.4
20260504231540 22 128 1.6 11.3 0.00 0.00 0.00 41 1007.2
20260504230039 22 91 1.6 8.0 0.00 0.00 0.00 40 1007.2
20260504224540 22 68 3.2 9.7 0.00 0.00 0.00 39 1007.2
20260504223054 22 89 1.6 6.4 0.00 0.00 0.00 40 1007.0
20260504221540 23 319 1.6 9.7 0.00 0.00 0.00 38 1007.0
20260504220040 23 322 1.6 9.7 0.00 0.00 0.00 36 1007.1
20260504214540 23 200 4.8 16.1 0.00 0.00 0.00 36 1007.0
20260504213049 23 136 4.8 14.5 0.00 0.00 0.00 34 1006.9
20260504211537 23 143 3.2 9.7 0.00 0.00 0.00 34 1007.0
20260504210039 23 70 1.6 9.7 0.00 0.00 0.00 34 1007.1
20260504204545 24 251 4.8 16.1 0.00 0.00 0.00 34 1007.2
20260504203051 24 195 3.2 14.5 0.00 0.00 0.00 31 1007.3
20260504201539 24 67 3.2 19.3 0.00 0.00 0.00 31 1007.5
20260504200035 23 228 1.6 19.3 0.00 0.00 0.00 33 1007.5
20260504194537 23 224 4.8 14.5 0.00 0.00 0.00 30 1007.8
20260504193037 23 252 4.8 16.1 0.00 0.00 0.00 29 1008.1
20260504191541 23 359 4.8 14.5 0.00 0.00 0.00 30 1008.3
20260504190045 23 243 3.2 16.1 0.00 0.00 0.00 31 1008.4
20260504184540 23 77 6.4 16.1 0.00 0.00 0.00 31 1008.9
20260504183037 22 70 6.4 20.9 0.00 0.00 0.00 33 1009.1
20260504181544 22 143 4.8 16.1 0.00 0.00 0.00 34 1009.3
20260504180035 22 313 1.6 11.3 0.00 0.00 0.00 35 1009.4
20260504174543 22 113 6.4 16.1 0.00 0.00 0.00 35 1009.6
20260504173038 21 125 4.8 14.5 0.00 0.00 0.00 37 1009.9
20260504171545 21 248 4.8 12.9 0.00 0.00 0.00 38 1010.1